Flag for Poland Weather past 2 weeks in Bielsko-Biała, Poland

Now
59 °F

Passing clouds.


Feels Like: 59 °F
Forecast: 49 / 73 °F
Wind: 3 mph from Northeast

Location: Katowice

Current Time: Sep 16, 2014 at 3:34:05 AM

Latest Report: Sep 16, 2014 at 2:00 AM


Visibility: 9 mi

Pressure: 30.13 "Hg

Humidity: 82%

Dew point: 53 °F

Location of Bielsko-BiałaLocation

Historic Weather in Bielsko-Biała — Graph

°F

Bielsko-Biała temperature yesterday

Maximum temperature yesterday: 74 °F (at 3:00 PM)
Minimum temperature yesterday: 55 °F (at 3:00 AM)
Average temperature yesterday: 64 °F

Past Weeks' High & Low Weather Summary

 TemperatureHumidityPressure
High79 °F (Sep 8, 4:00 PM)98% (Sep 13, 5:00 AM)30.20 "Hg (Sep 13, 5:00 AM)
Low49 °F (Sep 13, 7:00 AM)47% (Sep 7, 3:00 PM)29.87 "Hg (Sep 1, 2:00 AM)
Average63 °F82%30.03 "Hg
* Reported Sep 1 2:00 AM — Sep 16 2:00 AM, Bielsko-Biała, Weather by CustomWeather, © 2014

Note: Actual official high and low records may vary slightly from our data, if they occured in-between our weather recording intervals... More about our weather records

Advertising

Bielsko-Biała weather history for previous 24 hours

 ConditionsComfort  
Time TempWeatherWind HumidityBarometerVisibility
2:00 AM
Sep 16
59 °FPassing clouds.3 mph82%30.13 "Hg9 mi
1:00 AM60 °FPassing clouds.3 mph82%30.13 "Hg9 mi
12:00 AM60 °FPassing clouds.3 mph80%30.13 "Hg9 mi
11:00 PM
Sep 15
62 °FPassing clouds.2 mph77%30.13 "Hg9 mi
10:00 PM64 °FPassing clouds.5 mph75%30.12 "Hg9 mi
9:00 PM63 °FPassing clouds.3 mph74%30.11 "Hg9 mi
8:00 PM67 °FPassing clouds.2 mph64%30.10 "Hg9 mi
7:00 PM68 °FPassing clouds.5 mph63%30.09 "Hg9 mi
6:00 PM71 °FScattered clouds.5 mph58%30.07 "Hg9 mi
5:00 PM72 °FPartly sunny.5 mph55%30.07 "Hg9 mi
4:00 PM73 °FPartly sunny.6 mph53%30.06 "Hg9 mi
3:00 PM74 °FPartly sunny.6 mph48%30.06 "Hg12 mi
2:00 PM72 °FPartly sunny.6 mph53%30.07 "Hg12 mi
1:00 PM72 °FPartly sunny.6 mph55%30.07 "Hg12 mi
12:00 PM70 °FScattered clouds.5 mph60%30.08 "Hg12 mi
11:00 AM67 °FPassing clouds.5 mph62%30.08 "Hg9 mi
10:00 AM64 °FPassing clouds.5 mph70%30.09 "Hg9 mi
9:00 AM60 °FScattered clouds.5 mph75%30.09 "Hg9 mi
8:00 AM58 °FScattered clouds.5 mph78%30.09 "Hg6 mi
7:00 AM57 °FScattered clouds.2 mph82%30.09 "Hg9 mi
6:00 AM57 °FPassing clouds.2 mph83%30.08 "Hg9 mi
5:00 AM57 °FPassing clouds.1 mph83%30.08 "Hg9 mi
4:00 AM58 °FPassing clouds.3 mph84%30.07 "Hg9 mi
3:00 AM55 °FFog.2 mph91%30.08 "Hg9 mi
Weather by CustomWeather, © 2014

See weather overviewHow to use our weather pages